Theta_e
305 310 306 307 310 315 316 318 315 314 315 315 315 314 317 315 316 314 315 315 316 310 307 308 303 304 304 305 305 306 307 307 307 305 305 305 304 304 303 303 303 302 302
306 311 307 307 315 312 313 316 314 315 315 315 315 315 312 314 314 314 313 314 314 314 313 312 307 303 303 304 305 305 306 306 305 305 305 304 304 304 303 303 303 302 302
307 311 310 310 315 313 313 315 314 315 315 316 314 314 314 314 313 314 313 314 314 315 314 314 313 309 311 307 310 309 310 309 309 306 304 304 303 303 303 303 302 302 301
304 309 310 311 312 315 314 314 313 315 313 315 315 315 315 315 315 314 313 313 315 315 315 315 313 310 308 308 306 307 307 306 308 310 305 303 303 303 302 302 302 302 301
299 303 305 308 311 312 313 312 313 312 314 311 313 313 314 315 315 314 314 314 314 315 314 314 314 314 313 312 311 307 305 306 306 308 308 304 303 303 304 304 302 301 300
295 296 298 301 304 307 309 311 311 310 310 310 310 310 312 313 312 313 314 314 314 314 312 313 314 313 313 312 312 310 310 307 306 308 310 310 308 306 304 303 301 300 300
292 294 296 298 301 302 303 304 305 306 307 308 309 310 310 310 310 308 311 312 314 314 313 313 313 313 313 313 313 311 310 310 309 310 311 311 310 310 306 303 302 301 299
288 290 293 294 295 296 297 299 300 302 303 304 305 305 307 307 308 310 310 310 311 311 312 312 312 313 312 312 312 311 310 310 310 311 311 310 308 305 303 301 300 299 298
286 289 290 292 294 295 296 296 296 297 298 300 301 301 303 304 305 307 308 307 309 309 309 310 311 311 311 310 310 311 310 309 310 310 309 307 307 308 305 301 299 298 296
284 286 287 289 291 292 292 293 294 295 296 297 297 298 299 300 302 303 304 305 305 306 307 307 308 307 309 309 309 309 309 309 309 308 307 307 305 305 301 300 299 300 300
283 284 286 287 288 289 289 290 291 291 293 294 295 296 297 297 298 299 300 301 302 303 304 305 306 307 307 306 307 306 307 306 306 305 305 304 303 301 301 299 299 299 298
281 283 284 285 286 287 288 288 289 290 290 291 292 292 293 295 296 297 298 298 299 300 301 301 302 303 303 304 304 303 304 303 302 302 302 301 299 299 298 297 297 296 295
281 281 281 282 284 285 286 287 288 288 289 289 290 290 290 291 292 293 295 295 296 297 298 298 299 299 300 300 301 301 301 301 301 301 300 298 298 297 296 294 293 293 293
280 280 281 281 281 282 283 284 285 286 287 287 288 288 289 289 289 290 290 291 292 292 293 294 296 297 298 298 298 298 299 299 299 298 297 296 295 294 293 293 292 291 291
279 279 280 280 281 281 281 282 283 284 285 286 286 287 287 287 288 289 289 290 290 291 291 291 292 293 294 295 295 295 296 295 294 294 294 294 293 292 291 291 290 290 289
280 281 281 280 280 280 280 280 281 282 282 284 284 285 286 286 287 287 288 288 289 289 289 290 290 291 292 292 292 292 292 291 291 291 292 292 292 291 290 289 289 288 288
280 281 281 281 281 281 280 280 280 281 282 282 282 284 284 285 286 286 287 287 287 288 288 289 289 289 289 290 290 290 290 290 290 290 291 291 290 290 289 288 287 287 286
281 281 281 281 280 280 279 279 279 280 280 281 282 281 283 284 285 285 286 286 286 287 287 288 288 288 288 288 289 289 289 289 289 289 290 290 290 289 288 287 286 286 286
282 282 282 281 281 281 281 280 280 278 279 280 280 281 281 283 284 284 284 285 285 286 286 286 287 287 287 287 288 288 288 288 288 288 288 288 288 288 287 286 286 285 284
281 281 281 281 281 281 281 280 280 280 278 278 279 280 281 280 282 283 283 284 284 285 285 285 286 286 286 286 287 287 287 287 287 287 287 287 287 286 286 285 285 282 281
281 280 280 280 280 280 279 279 279 279 279 277 278 278 280 280 280 282 282 283 284 284 284 285 285 285 285 286 286 286 286 286 286 286 286 286 285 285 285 284 282 280 281
279 279 279 279 279 278 278 278 278 278 278 277 277 277 278 279 278 280 281 282 282 283 283 284 284 284 284 285 285 285 285 286 286 285 285 285 285 284 284 281 280 281 281
279 278 278 278 278 278 277 277 277 278 278 277 276 276 277 278 278 278 280 281 281 282 282 283 283 283 284 284 284 285 285 285 285 285 285 284 284 282 280 281 281 281 281
278 277 277 277 277 277 277 276 276 276 277 277 275 275 276 277 278 278 278 280 280 281 281 281 282 282 283 283 283 283 284 284 284 284 284 283 280 280 280 281 282 282 281
277 277 276 276 276 276 276 276 275 275 275 276 276 275 274 276 276 277 278 278 280 280 281 281 281 281 282 282 282 282 282 283 282 281 281 280 281 281 283 284 282 280 280
276 276 276 276 276 276 276 276 275 275 275 275 275 275 276 274 275 276 277 277 278 280 280 281 281 281 281 281 281 281 280 280 280 280 280 282 284 284 284 282 280 279 279
Wind_Speed
18 28 34 27 29 34 30 34 30 24 25 31 29 24 18 30 23 20 20 21 42 49 49 44 38 35 36 33 29 26 24 22 20 18 16 15 16 17 17 18 18 17 16
19 29 39 28 25 29 27 29 30 24 25 26 26 28 22 19 16 21 22 24 21 35 42 41 43 40 37 32 30 27 25 22 22 21 21 21 20 18 18 18 18 18 17
23 26 34 28 27 28 26 21 19 18 19 29 29 27 26 30 26 25 20 20 24 24 21 27 34 39 37 38 31 31 27 26 25 25 23 23 22 21 21 21 20 20 18
33 32 35 36 30 32 29 24 22 18 16 18 21 20 23 29 29 18 15 14 20 24 30 27 30 33 38 35 35 33 31 30 27 26 27 25 24 23 22 22 23 21 19
37 38 36 37 34 30 29 24 21 21 19 15 15 17 16 25 26 22 21 18 15 19 21 25 26 27 25 29 34 35 33 32 30 28 29 29 27 25 25 23 22 21 21
34 33 31 29 31 30 25 24 20 18 17 16 14 13 16 15 12 22 23 20 18 16 19 18 28 22 18 19 27 26 27 31 33 31 28 29 28 27 24 23 22 23 25
37 31 27 24 22 21 18 18 17 14 13 14 16 16 15 16 17 19 18 18 25 23 24 20 17 17 21 23 24 22 22 25 26 27 29 28 26 25 24 23 24 24 24
35 36 34 29 24 19 13 13 13 11 8 8 7 8 11 14 16 17 18 20 21 23 26 26 22 24 22 24 23 21 20 21 24 26 28 27 26 24 23 23 22 24 25
38 36 31 28 26 22 19 14 9 4 5 8 8 8 8 7 10 12 12 12 16 15 18 26 24 26 21 25 25 24 22 24 25 25 27 27 29 30 31 30 31 29 26
35 32 28 26 24 22 20 18 15 12 8 6 4 5 5 6 7 7 9 12 12 13 14 14 20 23 22 23 22 23 24 25 26 27 28 28 30 28 28 29 29 29 29
28 27 27 26 26 22 18 16 14 13 11 9 6 3 3 6 9 11 11 10 9 10 13 15 17 18 20 22 23 25 25 22 24 25 25 25 25 25 25 24 23 23 24
23 24 25 24 23 22 19 17 14 12 10 11 9 6 3 3 6 8 12 14 15 14 15 15 15 16 17 20 21 21 22 21 22 23 24 26 26 24 21 20 20 20 20
20 20 21 20 21 20 19 18 16 13 12 10 7 6 6 4 3 3 6 9 12 14 16 17 18 19 19 20 21 21 23 23 23 23 25 25 25 22 20 21 21 20 19
21 20 19 18 17 17 17 17 15 14 12 10 8 6 5 3 2 3 5 6 6 7 10 13 17 18 20 21 21 21 23 22 22 23 24 24 24 23 24 23 22 20 17
20 19 18 17 16 15 14 13 14 14 14 13 10 8 5 2 0 0 3 4 5 6 9 11 13 15 17 20 22 23 22 21 21 21 21 23 25 25 24 23 21 19 17
15 16 16 16 16 14 12 11 10 10 9 9 10 9 8 5 4 3 4 4 5 4 4 7 10 12 15 19 21 22 21 20 19 19 19 22 25 26 25 23 20 19 16
13 14 13 12 11 10 10 9 6 7 7 8 8 9 9 8 5 5 4 6 7 6 5 5 6 10 13 14 17 19 20 19 17 18 19 21 24 26 25 25 23 19 16
15 15 15 14 12 10 9 8 7 7 5 5 7 7 8 8 7 4 4 6 10 10 8 6 7 8 10 13 15 17 18 19 19 19 20 22 25 26 26 24 22 20 17
15 14 13 12 13 12 11 10 9 8 8 7 6 7 6 6 6 4 4 5 8 12 9 7 8 8 9 10 12 14 16 16 17 18 20 21 23 24 24 23 21 18 15
15 14 13 12 11 12 12 12 11 11 9 7 7 7 6 5 5 4 3 2 5 11 10 8 7 9 11 12 13 15 16 17 17 18 20 21 22 22 23 23 20 18 19
14 14 14 13 13 12 11 10 10 10 11 10 8 8 8 6 6 5 3 1 3 6 10 10 8 8 11 13 15 16 18 19 19 19 21 22 22 24 23 21 20 19 17
13 13 13 13 13 13 13 12 10 10 11 11 10 10 10 8 7 7 6 6 4 5 7 9 9 7 8 11 15 18 20 22 22 22 23 24 24 24 23 23 22 19 15
13 13 13 12 13 13 13 12 11 10 10 11 11 10 11 10 9 9 9 7 6 6 8 9 9 10 11 11 13 15 19 22 23 24 27 25 25 24 24 22 19 16 13
13 13 13 13 13 13 13 12 12 11 11 12 12 11 11 12 11 10 11 11 8 6 5 6 8 10 12 14 16 17 18 20 22 23 25 28 26 25 22 19 16 13 10
14 14 14 13 12 11 12 12 11 11 11 12 14 14 12 12 13 12 12 13 14 10 9 7 6 9 12 15 17 20 22 25 27 28 26 25 24 22 19 16 13 12 11
17 16 16 15 14 14 13 12 11 11 11 12 13 15 16 13 13 14 13 13 15 17 12 11 11 11 13 16 20 23 25 26 26 25 25 24 21 19 17 14 13 12 10
Wind_Direction
208 196 184 192 194 204 205 203 199 189 195 205 199 205 230 219 195 197 215 226 219 216 215 219 222 223 228 228 225 223 219 218 217 210 209 212 217 221 225 230 237 243 249
180 183 180 195 184 194 200 206 202 186 185 174 182 176 182 197 205 211 218 212 215 219 220 221 225 221 223 226 230 230 226 225 222 221 224 223 223 224 226 230 234 241 246
142 169 166 178 176 177 178 163 157 149 158 184 172 178 181 185 192 201 200 207 213 216 223 238 228 225 219 227 220 227 226 228 230 229 226 226 225 225 228 232 236 240 245
116 136 142 157 162 157 155 149 150 161 162 165 178 181 198 196 196 184 201 216 214 224 225 231 234 230 227 225 225 225 225 226 228 229 227 230 229 229 230 235 239 243 247
102 112 113 120 138 137 149 153 160 166 167 171 172 187 193 202 197 197 191 192 201 212 217 222 237 238 237 231 230 227 222 223 225 227 229 229 230 230 235 241 243 244 246
91 96 104 109 114 124 127 139 156 164 168 167 172 184 195 185 207 214 198 207 210 212 210 206 222 222 224 245 237 232 225 222 223 226 231 233 234 236 238 240 241 241 242
83 87 93 101 111 115 126 132 143 144 146 158 181 194 192 202 215 226 225 226 219 210 208 204 210 222 207 231 233 229 225 222 225 232 235 238 237 238 241 240 241 244 246
75 80 83 88 94 101 114 116 122 138 144 137 164 161 193 216 212 217 222 231 222 225 222 224 218 222 213 213 219 219 221 226 231 232 234 237 240 239 241 245 249 242 238
66 70 76 80 82 85 89 95 99 134 133 142 140 167 177 171 201 210 214 211 217 219 229 222 222 223 219 219 211 222 229 231 233 237 235 234 234 238 237 235 230 231 232
63 66 70 75 81 83 84 90 94 104 128 178 199 207 202 201 210 216 208 210 206 211 216 218 216 210 210 217 222 224 229 233 235 235 235 234 236 236 233 236 240 242 245
64 67 69 69 71 71 75 79 81 86 92 100 112 144 218 245 248 242 245 239 230 222 224 225 220 218 219 216 220 225 226 228 233 236 238 240 240 236 237 237 238 242 239
59 63 65 66 68 68 67 68 65 65 73 78 77 85 105 161 219 236 242 240 239 237 234 231 226 224 219 219 220 219 224 223 228 231 234 232 230 229 230 228 226 227 224
59 60 60 62 64 64 61 61 60 59 57 61 69 76 75 100 134 129 213 218 227 230 234 236 234 231 229 228 229 228 231 229 229 231 231 228 227 226 218 214 212 213 215
53 56 58 57 57 56 54 55 53 52 52 53 51 53 65 79 133 190 170 171 192 218 225 227 228 228 229 231 230 229 230 229 229 227 224 222 218 210 208 210 205 202 201
39 43 46 49 51 48 50 47 43 41 39 34 33 33 35 17 38 226 222 213 231 240 239 235 229 227 223 220 216 220 221 219 215 216 216 213 207 204 200 200 203 201 202
29 32 32 32 34 38 42 34 34 36 36 29 17 12 9 1 326 280 246 231 222 220 223 229 226 225 219 215 212 209 208 208 207 207 208 208 204 199 196 195 201 200 203
17 18 19 22 23 22 20 19 22 6 10 10 10 4 351 343 336 319 269 228 232 221 214 213 207 209 208 208 204 201 200 198 197 197 198 195 196 196 198 194 193 199 195
359 359 358 357 360 2 1 0 0 355 339 329 337 343 348 341 325 314 283 243 218 222 215 210 202 200 203 203 198 197 194 192 193 195 194 194 195 194 190 193 192 189 185
346 345 344 342 337 335 336 334 333 335 330 316 310 315 323 333 320 317 306 275 225 226 216 222 208 201 203 205 203 200 199 196 194 191 191 190 189 189 186 183 178 176 174
337 336 335 332 329 327 326 323 319 315 313 303 291 287 293 291 297 293 311 246 216 217 210 209 211 204 199 199 200 197 193 192 191 188 185 183 183 182 177 172 172 169 169
326 326 324 323 321 319 316 314 307 298 297 298 284 272 268 279 268 261 257 207 217 206 210 208 216 211 207 201 197 196 193 189 186 184 180 177 177 173 173 168 166 166 167
319 319 318 318 316 314 311 306 299 292 289 290 285 269 260 256 254 239 236 229 221 201 194 195 201 212 213 203 197 196 195 190 185 182 180 175 171 171 168 169 167 165 166
309 309 311 312 311 310 307 304 297 288 278 279 282 273 260 249 242 233 223 226 225 229 223 222 225 218 202 192 185 186 190 193 189 181 175 174 169 167 167 164 163 163 167
299 300 303 304 306 307 305 301 295 285 273 265 267 271 260 247 240 230 219 210 212 211 206 196 200 203 195 187 181 178 178 179 180 179 178 163 162 163 159 159 160 166 179
296 295 295 294 298 301 301 301 296 285 274 264 256 254 257 248 236 230 221 212 204 198 193 180 171 184 188 182 178 175 173 169 159 151 155 162 160 162 169 170 172 180 179
288 286 285 285 286 287 290 294 294 287 278 267 257 252 247 245 237 225 220 214 206 201 194 183 170 161 165 167 158 151 149 149 155 161 162 166 175 176 171 175 181 179 177